Location: Newark
(45.6833°N, 12.6333°E)
Time: 22:48:57
(UTC+00:00)

N. Korean satellite - Visible Passes

Search period start: 26 February 2021 00:00
Search period end: 08 March 2021 00:00
Orbit: 451 x 503 km, 97.2° (Epoch: 26 February)

Date Brightness Start Highest point End Pass type
(mag) Time Alt. Az. Time Alt. Az. Time Alt. Az.
26 Feb 6.9 04:32:24 10° NNE 04:35:52 67° E 04:39:23 10° S visible
27 Feb 8.5 04:05:57 10° NNE 04:09:05 30° E 04:12:14 10° SSE visible
28 Feb 9.7 03:40:05 10° NE 03:42:11 15° E 03:44:19 10° SE visible
28 Feb 7.1 05:12:23 10° N 05:15:39 36° WNW 05:18:55 10° SW visible
01 Mar 6.4 04:45:27 10° N 04:48:59 81° WNW 04:52:32 10° SSW visible
02 Mar 7.7 04:18:49 10° NNE 04:22:13 44° E 04:25:38 10° S visible
03 Mar 9.2 03:52:34 10° NE 03:55:21 21° E 03:58:09 10° SE visible
04 Mar 10.1 03:27:33 10° ENE 03:28:23 11° E 03:29:14 10° ESE visible
04 Mar 6.6 04:58:32 10° N 05:02:00 54° WNW 05:05:30 10° SSW visible
05 Mar 6.9 04:31:44 10° NNE 04:35:16 67° E 04:38:51 10° S visible
06 Mar 8.6 04:05:14 10° NNE 04:08:26 30° E 04:11:39 10° SSE visible
07 Mar 9.7 03:39:18 10° NE 03:41:30 15° E 03:43:41 10° SE visible
